HS1AL-1 Weather Reports


Display with metric or nautical units.
time (UTC)temp
F
wind
direction
speed
MPH
gust
MPH
rain 1hr
in
rain 24hr
in
rain mn
in
humidity
%
barometer
mb
20260505014534 92 0 0.0 0.0 0.00 0.00 0.00 54 1010.0
20260505013004 92 0 0.0 0.0 0.00 0.00 0.00 54 1010.0
20260505011435 92 0 0.0 0.0 0.00 0.00 0.00 55 1010.0
20260505005908 91 0 0.0 0.0 0.00 0.00 0.00 56 1010.0
20260505004332 90 0 0.0 0.0 0.00 0.00 0.00 56 1010.0
20260505002758 90 0 0.0 0.0 0.00 0.00 0.00 57 1009.0
20260505001228 90 0 0.0 0.0 0.00 0.00 0.00 57 1009.0
20260504235700 90 0 0.0 0.0 0.00 0.00 0.00 55 1009.0
20260504234133 90 0 0.0 0.0 0.00 0.00 0.00 55 1009.0
20260504232604 90 0 0.0 0.0 0.00 0.00 0.00 57 1008.0
20260504231035 89 0 0.0 0.0 0.00 0.00 0.00 57 1008.0
20260504225501 90 0 0.0 0.0 0.00 0.00 0.00 56 1008.0
20260504223932 91 0 0.0 0.0 0.00 0.00 0.00 54 1007.0
20260504222402 91 0 0.0 0.0 0.00 0.00 0.00 53 1007.0
20260504220832 91 0 0.0 0.0 0.00 0.00 0.00 53 1007.0
20260504215301 91 0 0.0 0.0 0.00 0.00 0.00 54 1007.0
20260504213730 91 0 0.0 0.0 0.00 0.00 0.00 54 1007.0
20260504212201 91 0 0.0 0.0 0.00 0.00 0.00 54 1007.0
20260504210833 91 0 0.0 0.0 0.00 0.00 0.00 54 1008.0
20260504205304 91 0 0.0 0.0 0.00 0.00 0.00 54 1008.0
20260504203734 91 0 0.0 0.0 0.00 0.00 0.00 55 1008.0
20260504202203 90 0 0.0 0.0 0.00 0.00 0.00 55 1008.0
20260504200636 90 0 0.0 0.0 0.00 0.00 0.00 58 1008.0
20260504195109 90 0 0.0 0.0 0.00 0.00 0.00 59 1009.0
20260504193540 90 0 0.0 0.0 0.00 0.00 0.00 58 1009.0
20260504192012 90 0 0.0 0.0 0.00 0.00 0.00 56 1009.0
20260504190442 91 0 0.0 0.0 0.00 0.00 0.00 55 1009.0
20260504184916 91 0 0.0 0.0 0.00 0.00 0.00 54 1009.0
20260504183346 91 0 0.0 0.0 0.00 0.00 0.00 54 1009.0
20260504181819 92 0 0.0 0.0 0.00 0.00 0.00 52 1009.0
20260504180252 93 0 0.0 0.0 0.00 0.00 0.00 52 1009.0
20260504174725 93 0 0.0 0.0 0.00 0.00 0.00 53 1009.0
20260504173155 94 0 0.0 0.0 0.00 0.00 0.00 53 1009.0
20260504171627 93 0 0.0 0.0 0.00 0.00 0.00 54 1010.0
20260504141050 96 0 0.0 0.0 0.00 0.00 0.00 51 1008.0
20260504081902 100 0 0.0 0.0 0.00 0.00 0.00 47 1005.0
20260504080335 100 0 0.0 0.0 0.00 0.00 0.00 42 1005.0
20260504070138 99 0 0.0 0.0 0.00 0.00 0.00 49 1006.0
20260504045748 101 0 0.0 0.0 0.00 0.00 0.00 49 1008.0
20260504044219 100 0 0.0 0.0 0.00 0.00 0.00 48 1008.0
20260504042653 102 0 0.0 0.0 0.00 0.00 0.00 42 1008.0
20260504041125 102 0 0.0 0.0 0.00 0.00 0.00 41 1008.0
20260504035557 102 0 0.0 0.0 0.00 0.00 0.00 41 1008.0
20260504034027 102 0 0.0 0.0 0.00 0.00 0.00 41 1008.0
20260504032500 102 0 0.0 0.0 0.00 0.00 0.00 42 1009.0
20260504030935 102 0 0.0 0.0 0.00 0.00 0.00 43 1009.0
20260504025408 101 0 0.0 0.0 0.00 0.00 0.00 44 1009.0
20260504023840 101 0 0.0 0.0 0.00 0.00 0.00 45 1009.0
20260504022311 101 0 0.0 0.0 0.00 0.00 0.00 46 1009.0
20260504020738 100 0 0.0 0.0 0.00 0.00 0.00 47 1009.0
20260504015211 100 0 0.0 0.0 0.00 0.00 0.00 47 1009.0